North Platte, NE

7:32 PM CDT on September 24, 2016 (GMT -0500)
North Platte Regional-Bird

Weather History for KLBF - September, 2014

Change the Weather History Date:

Friday, September 5, 2014

  Actual Average Record
Temperature  
Mean Temperature 59 °F 67 °F  
Max Temperature 69 °F 82 °F 105 °F (1931)
Min Temperature 49 °F 52 °F 32 °F (1956)
Degree Days  
Heating Degree Days 6 2  
Month to date heating degree days 9 10  
Since 1 July heating degree days 26 30  
Cooling Degree Days 0 4  
Month to date cooling degree days 18 23  
Year to date cooling degree days 687 718  
Growing Degree Days 10 (Base 50)    
Moisture  
Dew Point 48 °F    
Average Humidity 67    
Maximum Humidity 89    
Minimum Humidity 45    
Precipitation  
Precipitation 0.26 in 0.05 in 0.65 in (1948)
Month to date precipitation 0.34 0.24  
Year to date precipitation 18.62 16.46  
Snow  
Snow 0.00 in 0.00 in 0.00 in (2002)
Month to date snowfall 0.0 0.0  
Since 1 July snowfall 0.0 0.0  
Since 1 September snowfall 0.0 0.0  
Snow Depth 0.00 in    
Sea Level Pressure  
Sea Level Pressure 30.24 in    
Wind  
Wind Speed 4 mph (NNW)    
Max Wind Speed 14 mph    
Max Gust Speed 17 mph    
Visibility 9 miles    
Events Rain    
T = Trace of Precipitation, MM = Missing Value Source: NWS Daily Summary

Daily Weather History Graph

Daily Weather History Graph

Search for Another Location

Airport or City:

Trip Planner

Search our weather history database for the weather conditions in past years. The results will help you decide how hot, cold, wet, or windy it might be!

Date:

Astronomy

Sep. 05, 2014 Rise Set
Actual Time 7:13 AM CDT 8:08 PM CDT
Civil Twilight 6:45 AM CDT 8:36 PM CDT
Nautical Twilight 6:11 AM CDT 9:09 PM CDT
Astronomical Twilight 5:37 AM CDT 9:44 PM CDT
Moon 5:40 PM CDT (9/5) 3:07 AM CDT (9/5)
Length of Visible Light 13h 51m
Length of Day
12h 55m
Waxing Gibbous, 84% of the Moon is Illuminated
Sep 5
Waxing Gibbous
Sep 8
Full
Sep 15
Last Quarter
Sep 24
New
Oct 1
First Quarter

Hourly Weather History & Observations

Time (CDT) Temp. Dew Point Humidity Pressure Visibility Wind Dir Wind Speed Gust Speed Precip Events Conditions
12:53 AM 61.0 °F 45.0 °F 56% 30.14 in 10.0 mi Variable 3.5 mph - N/A   Clear
1:53 AM 59.0 °F 48.9 °F 69% 30.17 in 10.0 mi Calm Calm - N/A   Scattered Clouds
2:53 AM 55.9 °F 48.9 °F 77% 30.14 in 10.0 mi NNE 6.9 mph - N/A   Clear
3:53 AM 59.0 °F 45.0 °F 60% 30.11 in 10.0 mi North 10.4 mph - N/A   Scattered Clouds
4:53 AM 57.9 °F 46.0 °F 65% 30.14 in 10.0 mi North 5.8 mph - 0.00 in   Overcast
5:53 AM 55.9 °F 48.0 °F 75% 30.19 in 10.0 mi North 4.6 mph - 0.00 in Rain Light Rain
6:53 AM 53.6 °F 50.0 °F 88% 30.30 in 9.0 mi Calm Calm - N/A Rain Light Rain
7:53 AM 52.0 °F 48.0 °F 86% 30.27 in 10.0 mi North 3.5 mph - 0.08 in Rain Light Rain
8:53 AM 53.1 °F 48.9 °F 86% 30.29 in 6.0 mi NNW 4.6 mph - 0.04 in Rain Light Rain
9:43 AM 52.0 °F 48.9 °F 89% 30.34 in 6.0 mi NNW 6.9 mph - 0.07 in Rain Light Rain
9:53 AM 51.1 °F 48.9 °F 92% 30.32 in 6.0 mi NW 10.4 mph - 0.09 in Rain Rain
10:53 AM 51.8 °F 48.2 °F 88% 30.34 in 10.0 mi NW 8.1 mph - N/A Rain Light Rain
11:53 AM 54.0 °F 48.0 °F 80% 30.31 in 10.0 mi North 5.8 mph - 0.01 in   Overcast
12:53 PM 60.1 °F 48.0 °F 64% 30.28 in 10.0 mi North 9.2 mph - 0.00 in   Mostly Cloudy
1:53 PM 64.0 °F 48.0 °F 56% 30.27 in 10.0 mi NNW 6.9 mph - N/A   Overcast
2:53 PM 66.0 °F 48.0 °F 52% 30.26 in 10.0 mi Variable 5.8 mph - N/A   Scattered Clouds
3:53 PM 66.0 °F 48.9 °F 54% 30.24 in 10.0 mi West 4.6 mph - N/A   Clear
4:53 PM 68.0 °F 48.0 °F 49% 30.22 in 10.0 mi WNW 4.6 mph - N/A   Clear
5:53 PM 68.0 °F 46.0 °F 45% 30.22 in 10.0 mi NNE 4.6 mph - N/A   Clear
6:53 PM 66.9 °F 46.9 °F 49% 30.22 in 10.0 mi NE 5.8 mph - N/A   Clear
7:53 PM 63.0 °F 53.1 °F 70% 30.25 in 10.0 mi Calm Calm - N/A   Clear
8:53 PM 57.0 °F 52.0 °F 83% 30.27 in 10.0 mi Calm Calm - N/A   Clear
9:53 PM 54.0 °F 50.0 °F 86% 30.30 in 10.0 mi Calm Calm - N/A   Partly Cloudy
10:53 PM 51.1 °F 48.9 °F 92% 30.30 in 10.0 mi Calm Calm - N/A   Clear